Time,TemperatureF,DewpointF,PressureIn,WindDirection,WindDirectionDegrees,WindSpeedMPH,WindSpeedGustMPH,Humidity,HourlyPrecipIn,Conditions,Clouds,dailyrainin,SoftwareType,DateUTC
2013-02-12 00:00:00,35.9,27.4,29.79,NNW,330,2.0,2.0,71,0.00,,,0.17,Wunderground v.1.15,2013-02-12 05:00:00,
2013-02-12 00:05:00,35.9,27.4,29.79,West,262,2.0,8.0,71,0.00,,,0.00,Wunderground v.1.15,2013-02-12 05:05:00,
2013-02-12 00:10:00,35.9,27.4,29.79,WSW,250,2.0,8.0,71,0.00,,,0.00,Wunderground v.1.15,2013-02-12 05:10:00,
2013-02-12 00:15:00,35.9,27.4,29.79,WSW,253,2.0,8.0,71,0.00,,,0.00,Wunderground v.1.15,2013-02-12 05:15:00,
2013-02-12 00:20:00,35.9,27.7,29.79,ENE,72,2.0,2.0,72,0.00,,,0.00,Wunderground v.1.15,2013-02-12 05:20:00,
2013-02-12 00:25:00,35.9,27.4,29.80,WNW,287,2.0,8.0,71,0.00,,,0.00,Wunderground v.1.15,2013-02-12 05:25:00,
2013-02-12 00:30:00,35.9,27.4,29.80,WNW,302,3.0,3.0,71,0.00,,,0.00,Wunderground v.1.15,2013-02-12 05:30:00,
2013-02-12 00:35:00,35.8,27.7,29.80,SE,146,2.0,8.0,72,0.00,,,0.00,Wunderground v.1.15,2013-02-12 05:35:00,
2013-02-12 00:40:00,35.8,27.7,29.80,WNW,288,1.0,8.0,72,0.00,,,0.00,Wunderground v.1.15,2013-02-12 05:40:00,
2013-02-12 00:45:00,35.8,27.7,29.80,SSE,152,2.0,8.0,72,0.00,,,0.00,Wunderground v.1.15,2013-02-12 05:45:00,
2013-02-12 00:50:00,35.8,27.3,29.80,WSW,245,2.0,2.0,71,0.00,,,0.00,Wunderground v.1.15,2013-02-12 05:50:00,
2013-02-12 00:55:00,35.8,27.3,29.80,West,264,2.0,8.0,71,0.00,,,0.00,Wunderground v.1.15,2013-02-12 05:55:00,
2013-02-12 01:00:00,35.7,27.2,29.80,WSW,255,3.0,8.0,71,0.00,,,0.00,Wunderground v.1.15,2013-02-12 06:00:00,
2013-02-12 01:05:00,35.7,27.6,29.80,SW,228,3.0,8.0,72,0.00,,,0.00,Wunderground v.1.15,2013-02-12 06:05:00,
2013-02-12 01:10:00,35.7,27.2,29.79,West,260,2.0,8.0,71,0.00,,,0.00,Wunderground v.1.15,2013-02-12 06:10:00,
2013-02-12 01:15:00,35.8,27.0,29.80,West,276,3.0,8.0,70,0.00,,,0.00,Wunderground v.1.15,2013-02-12 06:15:00,
2013-02-12 01:20:00,35.8,27.0,29.80,West,276,4.0,4.0,70,0.00,,,0.00,Wunderground v.1.15,2013-02-12 06:20:00,
2013-02-12 01:25:00,35.7,26.9,29.80,SW,228,3.0,8.0,70,0.00,,,0.00,Wunderground v.1.15,2013-02-12 06:25:00,
2013-02-12 01:30:00,35.6,27.1,29.80,SW,230,1.0,1.0,71,0.00,,,0.00,Wunderground v.1.15,2013-02-12 06:30:00,
2013-02-12 01:35:00,35.6,27.1,29.80,SSW,207,1.0,8.0,71,0.00,,,0.00,Wunderground v.1.15,2013-02-12 06:35:00,
2013-02-12 01:40:00,35.6,26.8,29.80,SSW,211,1.0,8.0,70,0.00,,,0.00,Wunderground v.1.15,2013-02-12 06:40:00,
2013-02-12 01:45:00,35.6,26.8,29.80,SSW,210,2.0,8.0,70,0.00,,,0.00,Wunderground v.1.15,2013-02-12 06:45:00,
2013-02-12 01:50:00,35.6,26.8,29.80,WSW,242,3.0,3.0,70,0.00,,,0.00,Wunderground v.1.15,2013-02-12 06:50:00,
2013-02-12 01:55:00,35.6,26.8,29.80,SSW,210,3.0,8.0,70,0.00,,,0.00,Wunderground v.1.15,2013-02-12 06:55:00,
2013-02-12 02:00:00,35.6,26.8,29.81,NW,312,3.0,8.0,70,0.00,,,0.00,Wunderground v.1.15,2013-02-12 07:00:00,
2013-02-12 02:05:00,35.5,27.0,29.81,SSW,212,3.0,8.0,71,0.00,,,0.00,Wunderground v.1.15,2013-02-12 07:05:00,
2013-02-12 02:10:00,35.6,26.8,29.81,NNW,339,2.0,8.0,70,0.00,,,0.00,Wunderground v.1.15,2013-02-12 07:10:00,
2013-02-12 02:15:00,35.5,26.7,29.81,WSW,252,2.0,8.0,70,0.00,,,0.00,Wunderground v.1.15,2013-02-12 07:15:00,
2013-02-12 02:20:00,35.5,26.7,29.82,WNW,288,2.0,8.0,70,0.00,,,0.00,Wunderground v.1.15,2013-02-12 07:20:00,
2013-02-12 02:25:00,35.5,26.7,29.82,West,278,3.0,8.0,70,0.00,,,0.00,Wunderground v.1.15,2013-02-12 07:25:00,
2013-02-12 02:30:00,35.5,26.7,29.82,WNW,294,3.0,8.0,70,0.00,,,0.00,Wunderground v.1.15,2013-02-12 07:30:00,
2013-02-12 02:35:00,35.5,26.7,29.82,WNW,287,2.0,8.0,70,0.00,,,0.00,Wunderground v.1.15,2013-02-12 07:35:00,
2013-02-12 02:40:00,35.5,26.7,29.82,NW,316,2.0,8.0,70,0.00,,,0.00,Wunderground v.1.15,2013-02-12 07:40:00,
2013-02-12 02:45:00,35.5,26.7,29.82,West,267,2.0,8.0,70,0.00,,,0.00,Wunderground v.1.15,2013-02-12 07:45:00,
2013-02-12 02:50:00,35.5,26.7,29.82,NW,314,4.0,4.0,70,0.00,,,0.00,Wunderground v.1.15,2013-02-12 07:50:00,
2013-02-12 02:55:00,35.4,26.6,29.82,WNW,285,4.0,8.0,70,0.00,,,0.00,Wunderground v.1.15,2013-02-12 07:55:00,
2013-02-12 03:00:00,35.3,26.5,29.83,WSW,246,3.0,8.0,70,0.00,,,0.00,Wunderground v.1.15,2013-02-12 08:00:00,
2013-02-12 03:05:00,35.3,26.5,29.82,West,260,4.0,8.0,70,0.00,,,0.00,Wunderground v.1.15,2013-02-12 08:05:00,
2013-02-12 03:10:00,35.3,26.5,29.82,West,267,5.0,5.0,70,0.00,,,0.00,Wunderground v.1.15,2013-02-12 08:10:00,
2013-02-12 03:15:00,35.3,26.5,29.82,West,270,5.0,8.0,70,0.00,,,0.00,Wunderground v.1.15,2013-02-12 08:15:00,
2013-02-12 03:20:00,35.2,26.4,29.82,WSW,240,4.0,4.0,70,0.00,,,0.00,Wunderground v.1.15,2013-02-12 08:20:00,
2013-02-12 03:25:00,35.1,26.3,29.83,WSW,253,4.0,8.0,70,0.00,,,0.00,Wunderground v.1.15,2013-02-12 08:25:00,
2013-02-12 03:30:00,35.1,26.3,29.83,West,266,4.0,4.0,70,0.00,,,0.00,Wunderground v.1.15,2013-02-12 08:30:00,
2013-02-12 03:35:00,35.1,26.6,29.83,SW,228,2.0,8.0,71,0.00,,,0.00,Wunderground v.1.15,2013-02-12 08:35:00,
2013-02-12 03:40:00,35.0,26.2,29.83,West,276,3.0,3.0,70,0.00,,,0.00,Wunderground v.1.15,2013-02-12 08:40:00,
2013-02-12 03:45:00,35.0,26.2,29.83,WNW,288,3.0,8.0,70,0.00,,,0.00,Wunderground v.1.15,2013-02-12 08:45:00,
2013-02-12 03:50:00,34.9,26.4,29.83,South,189,2.0,2.0,71,0.00,,,0.00,Wunderground v.1.15,2013-02-12 08:50:00,
2013-02-12 03:55:00,34.8,26.4,29.83,WSW,250,1.0,3.0,71,0.00,,,0.00,Wunderground v.1.15,2013-02-12 08:55:00,
2013-02-12 04:00:00,34.8,26.4,29.83,West,260,2.0,8.0,71,0.00,,,0.00,Wunderground v.1.15,2013-02-12 09:00:00,
2013-02-12 04:05:00,34.9,26.1,29.83,West,267,3.0,8.0,70,0.00,,,0.00,Wunderground v.1.15,2013-02-12 09:05:00,
2013-02-12 04:10:00,34.8,26.4,29.84,SSW,210,3.0,8.0,71,0.00,,,0.00,Wunderground v.1.15,2013-02-12 09:10:00,
2013-02-12 04:15:00,34.9,26.1,29.84,WSW,252,4.0,8.0,70,0.00,,,0.00,Wunderground v.1.15,2013-02-12 09:15:00,
2013-02-12 04:20:00,34.9,26.4,29.84,NW,309,5.0,8.0,71,0.00,,,0.00,Wunderground v.1.15,2013-02-12 09:20:00,
2013-02-12 04:25:00,34.8,26.4,29.84,WSW,238,4.0,8.0,71,0.00,,,0.00,Wunderground v.1.15,2013-02-12 09:25:00,
2013-02-12 04:30:00,34.9,26.1,29.84,WSW,253,3.0,8.0,70,0.00,,,0.00,Wunderground v.1.15,2013-02-12 09:30:00,
2013-02-12 04:35:00,34.8,26.0,29.84,WSW,256,4.0,8.0,70,0.00,,,0.00,Wunderground v.1.15,2013-02-12 09:35:00,
2013-02-12 04:40:00,34.8,26.4,29.84,SW,217,4.0,4.0,71,0.00,,,0.00,Wunderground v.1.15,2013-02-12 09:40:00,
2013-02-12 04:45:00,34.7,26.3,29.84,West,274,3.0,8.0,71,0.00,,,0.00,Wunderground v.1.15,2013-02-12 09:45:00,
2013-02-12 04:50:00,34.7,26.3,29.85,WSW,248,3.0,8.0,71,0.00,,,0.00,Wunderground v.1.15,2013-02-12 09:50:00,
2013-02-12 04:55:00,34.7,26.3,29.85,SW,236,3.0,8.0,71,0.00,,,0.00,Wunderground v.1.15,2013-02-12 09:55:00,
2013-02-12 05:00:00,34.6,26.2,29.85,WSW,256,3.0,8.0,71,0.00,,,0.00,Wunderground v.1.15,2013-02-12 10:00:00,
2013-02-12 05:05:00,34.6,26.2,29.85,West,272,4.0,8.0,71,0.00,,,0.00,Wunderground v.1.15,2013-02-12 10:05:00,
2013-02-12 05:10:00,34.5,26.1,29.85,West,280,3.0,3.0,71,0.00,,,0.00,Wunderground v.1.15,2013-02-12 10:10:00,
2013-02-12 05:15:00,34.5,26.1,29.85,West,260,3.0,4.0,71,0.00,,,0.00,Wunderground v.1.15,2013-02-12 10:15:00,
2013-02-12 05:20:00,34.5,26.1,29.85,NNW,328,3.0,8.0,71,0.00,,,0.00,Wunderground v.1.15,2013-02-12 10:20:00,
2013-02-12 05:25:00,34.5,25.7,29.85,WSW,252,3.0,8.0,70,0.00,,,0.00,Wunderground v.1.15,2013-02-12 10:25:00,
2013-02-12 05:30:00,34.5,26.1,29.85,WSW,251,3.0,8.0,71,0.00,,,0.00,Wunderground v.1.15,2013-02-12 10:30:00,
2013-02-12 05:35:00,34.5,26.1,29.85,West,264,3.0,8.0,71,0.00,,,0.00,Wunderground v.1.15,2013-02-12 10:35:00,
2013-02-12 05:40:00,34.5,26.1,29.86,West,269,4.0,8.0,71,0.00,,,0.00,Wunderground v.1.15,2013-02-12 10:40:00,
2013-02-12 05:45:00,34.5,26.1,29.86,WNW,285,3.0,8.0,71,0.00,,,0.00,Wunderground v.1.15,2013-02-12 10:45:00,
2013-02-12 05:50:00,34.4,26.0,29.86,West,267,3.0,8.0,71,0.00,,,0.00,Wunderground v.1.15,2013-02-12 10:50:00,
2013-02-12 05:55:00,34.4,26.0,29.86,West,281,5.0,8.0,71,0.00,,,0.00,Wunderground v.1.15,2013-02-12 10:55:00,
2013-02-12 06:00:00,34.4,26.0,29.87,WNW,294,6.0,6.0,71,0.00,,,0.00,Wunderground v.1.15,2013-02-12 11:00:00,
2013-02-12 06:05:00,34.3,26.2,29.87,WNW,298,4.0,7.0,72,0.00,,,0.00,Wunderground v.1.15,2013-02-12 11:05:00,
2013-02-12 06:10:00,34.3,26.2,29.87,SW,228,4.0,4.0,72,0.00,,,0.00,Wunderground v.1.15,2013-02-12 11:10:00,
2013-02-12 06:15:00,34.3,26.2,29.87,SW,221,4.0,8.0,72,0.00,,,0.00,Wunderground v.1.15,2013-02-12 11:15:00,
2013-02-12 06:20:00,34.2,26.1,29.87,SSW,208,3.0,3.0,72,0.00,,,0.00,Wunderground v.1.15,2013-02-12 11:20:00,
2013-02-12 06:25:00,34.1,26.0,29.88,WNW,288,2.0,8.0,72,0.00,,,0.00,Wunderground v.1.15,2013-02-12 11:25:00,
2013-02-12 06:30:00,34.1,26.3,29.88,NW,321,2.0,8.0,73,0.00,,,0.00,Wunderground v.1.15,2013-02-12 11:30:00,
2013-02-12 06:35:00,34.0,26.3,29.89,NNW,329,3.0,8.0,73,0.00,,,0.00,Wunderground v.1.15,2013-02-12 11:35:00,
2013-02-12 06:40:00,34.0,26.3,29.89,WNW,294,3.0,8.0,73,0.00,,,0.00,Wunderground v.1.15,2013-02-12 11:40:00,
2013-02-12 06:45:00,33.9,26.5,29.89,NW,305,3.0,8.0,74,0.00,,,0.00,Wunderground v.1.15,2013-02-12 11:45:00,
2013-02-12 06:50:00,33.8,26.4,29.89,West,281,3.0,8.0,74,0.00,,,0.00,Wunderground v.1.15,2013-02-12 11:50:00,
2013-02-12 06:55:00,33.7,26.6,29.90,WSW,257,3.0,8.0,75,0.00,,,0.00,Wunderground v.1.15,2013-02-12 11:55:00,
2013-02-12 07:00:00,33.6,26.8,29.90,WNW,300,3.0,8.0,76,0.00,,,0.00,Wunderground v.1.15,2013-02-12 12:00:00,
2013-02-12 07:05:00,33.4,27.0,29.90,WNW,283,3.0,8.0,77,0.00,,,0.00,Wunderground v.1.15,2013-02-12 12:05:00,
2013-02-12 07:10:00,33.2,26.8,29.91,WNW,288,3.0,8.0,77,0.00,,,0.00,Wunderground v.1.15,2013-02-12 12:10:00,
2013-02-12 07:15:00,33.2,26.8,29.91,NW,319,3.0,8.0,77,0.00,,,0.00,Wunderground v.1.15,2013-02-12 12:15:00,
2013-02-12 07:20:00,33.2,26.8,29.91,WSW,257,4.0,4.0,77,0.00,,,0.00,Wunderground v.1.15,2013-02-12 12:20:00,
2013-02-12 07:25:00,33.1,27.0,29.92,NW,317,2.0,8.0,78,0.00,,,0.00,Wunderground v.1.15,2013-02-12 12:25:00,
2013-02-12 07:30:00,33.0,26.9,29.92,West,259,2.0,8.0,78,0.00,,,0.00,Wunderground v.1.15,2013-02-12 12:30:00,
2013-02-12 07:35:00,33.0,26.9,29.92,WNW,289,3.0,8.0,78,0.00,,,0.00,Wunderground v.1.15,2013-02-12 12:35:00,
2013-02-12 07:40:00,33.0,26.9,29.92,North,356,3.0,8.0,78,0.00,,,0.00,Wunderground v.1.15,2013-02-12 12:40:00,
2013-02-12 07:45:00,33.0,26.9,29.92,NNW,328,3.0,8.0,78,0.00,,,0.00,Wunderground v.1.15,2013-02-12 12:45:00,
2013-02-12 07:50:00,33.1,27.0,29.92,North,359,3.0,3.0,78,0.00,,,0.00,Wunderground v.1.15,2013-02-12 12:50:00,
2013-02-12 07:55:00,33.1,27.0,29.92,NE,46,2.0,8.0,78,0.00,,,0.00,Wunderground v.1.15,2013-02-12 12:55:00,
2013-02-12 08:00:00,33.0,27.2,29.92,NW,316,2.0,8.0,79,0.00,,,0.00,Wunderground v.1.15,2013-02-12 13:00:00,
2013-02-12 08:05:00,33.0,26.9,29.92,West,278,2.0,8.0,78,0.00,,,0.00,Wunderground v.1.15,2013-02-12 13:05:00,
2013-02-12 08:10:00,33.0,26.9,29.93,NNW,334,3.0,3.0,78,0.00,,,0.00,Wunderground v.1.15,2013-02-12 13:10:00,
2013-02-12 08:15:00,33.1,27.0,29.93,North,349,3.0,6.0,78,0.00,,,0.00,Wunderground v.1.15,2013-02-12 13:15:00,
2013-02-12 08:20:00,33.1,27.0,29.93,NW,322,3.0,8.0,78,0.00,,,0.00,Wunderground v.1.15,2013-02-12 13:20:00,
2013-02-12 08:25:00,33.1,27.0,29.93,West,276,3.0,8.0,78,0.00,,,0.00,Wunderground v.1.15,2013-02-12 13:25:00,
2013-02-12 08:30:00,33.1,27.0,29.93,NE,39,3.0,3.0,78,0.00,,,0.00,Wunderground v.1.15,2013-02-12 13:30:00,
2013-02-12 08:35:00,33.3,26.9,29.94,NW,318,3.0,8.0,77,0.00,,,0.00,Wunderground v.1.15,2013-02-12 13:35:00,
2013-02-12 08:40:00,33.4,27.0,29.94,North,349,4.0,4.0,77,0.00,,,0.00,Wunderground v.1.15,2013-02-12 13:40:00,
2013-02-12 08:45:00,33.4,26.6,29.94,NW,316,3.0,8.0,76,0.00,,,0.00,Wunderground v.1.15,2013-02-12 13:45:00,
2013-02-12 08:50:00,33.5,26.7,29.94,NW,323,3.0,8.0,76,0.00,,,0.00,Wunderground v.1.15,2013-02-12 13:50:00,
2013-02-12 08:55:00,33.6,26.8,29.94,NNW,344,5.0,8.0,76,0.00,,,0.00,Wunderground v.1.15,2013-02-12 13:55:00,
2013-02-12 09:00:00,33.6,26.5,29.95,NNW,340,6.0,8.0,75,0.00,,,0.00,Wunderground v.1.15,2013-02-12 14:00:00,
2013-02-12 09:05:00,33.6,26.5,29.95,NE,44,5.0,8.0,75,0.00,,,0.00,Wunderground v.1.15,2013-02-12 14:05:00,
2013-02-12 09:10:00,33.6,26.5,29.95,West,281,4.0,8.0,75,0.00,,,0.00,Wunderground v.1.15,2013-02-12 14:10:00,
2013-02-12 09:15:00,33.7,26.6,29.95,NNE,25,4.0,8.0,75,0.00,,,0.00,Wunderground v.1.15,2013-02-12 14:15:00,
2013-02-12 09:20:00,33.7,26.3,29.95,ENE,62,5.0,8.0,74,0.00,,,0.00,Wunderground v.1.15,2013-02-12 14:20:00,
2013-02-12 09:25:00,33.7,26.3,29.95,NNE,18,5.0,8.0,74,0.00,,,0.00,Wunderground v.1.15,2013-02-12 14:25:00,
2013-02-12 09:30:00,33.8,26.4,29.96,NW,306,3.0,8.0,74,0.00,,,0.00,Wunderground v.1.15,2013-02-12 14:30:00,
2013-02-12 09:35:00,33.8,26.4,29.96,West,267,3.0,8.0,74,0.00,,,0.00,Wunderground v.1.15,2013-02-12 14:35:00,
2013-02-12 09:40:00,33.8,26.4,29.96,North,358,3.0,3.0,74,0.00,,,0.00,Wunderground v.1.15,2013-02-12 14:40:00,
2013-02-12 09:45:00,33.9,26.2,29.96,WNW,296,3.0,8.0,73,0.00,,,0.00,Wunderground v.1.15,2013-02-12 14:45:00,
2013-02-12 09:50:00,33.9,26.2,29.96,NNE,20,3.0,8.0,73,0.00,,,0.00,Wunderground v.1.15,2013-02-12 14:50:00,
2013-02-12 09:55:00,33.9,25.8,29.96,NW,311,3.0,8.0,72,0.00,,,0.00,Wunderground v.1.15,2013-02-12 14:55:00,
2013-02-12 10:00:00,33.9,26.2,29.97,ENE,60,3.0,3.0,73,0.00,,,0.00,Wunderground v.1.15,2013-02-12 15:00:00,
2013-02-12 10:05:00,34.0,25.9,29.97,West,280,3.0,8.0,72,0.00,,,0.00,Wunderground v.1.15,2013-02-12 15:05:00,
2013-02-12 10:10:00,34.0,25.9,29.97,WSW,253,4.0,4.0,72,0.00,,,0.00,Wunderground v.1.15,2013-02-12 15:10:00,
2013-02-12 10:15:00,34.0,25.9,29.97,NNW,328,4.0,8.0,72,0.00,,,0.00,Wunderground v.1.15,2013-02-12 15:15:00,
2013-02-12 10:20:00,34.0,25.9,29.97,North,351,4.0,4.0,72,0.00,,,0.00,Wunderground v.1.15,2013-02-12 15:20:00,
2013-02-12 10:25:00,34.0,25.6,29.97,NNW,334,4.0,8.0,71,0.00,,,0.00,Wunderground v.1.15,2013-02-12 15:25:00,
2013-02-12 10:30:00,34.1,26.0,29.97,NNW,339,4.0,4.0,72,0.00,,,0.00,Wunderground v.1.15,2013-02-12 15:30:00,
2013-02-12 10:35:00,34.1,25.7,29.97,WNW,288,4.0,8.0,71,0.00,,,0.00,Wunderground v.1.15,2013-02-12 15:35:00,
2013-02-12 10:40:00,34.1,25.7,29.97,WNW,300,4.0,8.0,71,0.00,,,0.00,Wunderground v.1.15,2013-02-12 15:40:00,
2013-02-12 10:45:00,34.1,25.7,29.97,West,272,3.0,8.0,71,0.00,,,0.00,Wunderground v.1.15,2013-02-12 15:45:00,
2013-02-12 10:50:00,34.1,25.7,29.97,West,271,3.0,8.0,71,0.00,,,0.00,Wunderground v.1.15,2013-02-12 15:50:00,
2013-02-12 10:55:00,34.0,25.6,29.98,NW,311,4.0,8.0,71,0.00,,,0.00,Wunderground v.1.15,2013-02-12 15:55:00,
2013-02-12 11:00:00,34.0,25.6,29.98,NNW,328,5.0,8.0,71,0.00,,,0.00,Wunderground v.1.15,2013-02-12 16:00:00,
2013-02-12 11:05:00,34.1,25.3,29.98,NNW,345,5.0,8.0,70,0.00,,,0.00,Wunderground v.1.15,2013-02-12 16:05:00,
2013-02-12 11:10:00,34.1,25.3,29.98,NNW,340,5.0,5.0,70,0.00,,,0.00,Wunderground v.1.15,2013-02-12 16:10:00,
2013-02-12 11:15:00,34.2,25.1,29.98,West,273,4.0,8.0,69,0.00,,,0.00,Wunderground v.1.15,2013-02-12 16:15:00,
2013-02-12 11:20:00,34.3,25.5,29.98,East,82,3.0,3.0,70,0.00,,,0.00,Wunderground v.1.15,2013-02-12 16:20:00,
2013-02-12 11:25:00,34.4,25.3,29.98,NNW,335,1.0,5.0,69,0.00,,,0.00,Wunderground v.1.15,2013-02-12 16:25:00,
2013-02-12 11:30:00,34.3,25.2,29.98,WSW,242,2.0,9.0,69,0.00,,,0.00,Wunderground v.1.15,2013-02-12 16:30:00,
2013-02-12 11:35:00,34.3,25.2,29.98,West,274,4.0,9.0,69,0.00,,,0.00,Wunderground v.1.15,2013-02-12 16:35:00,
2013-02-12 11:40:00,34.3,25.5,29.98,WNW,288,4.0,4.0,70,0.00,,,0.00,Wunderground v.1.15,2013-02-12 16:40:00,
2013-02-12 11:45:00,34.3,24.8,29.98,West,270,4.0,9.0,68,0.00,,,0.00,Wunderground v.1.15,2013-02-12 16:45:00,
2013-02-12 11:55:00,34.3,24.8,29.98,NW,309,5.0,5.0,68,0.00,,,0.00,Wunderground v.1.15,2013-02-12 16:55:00,
2013-02-12 12:00:00,34.3,24.8,29.98,NNW,328,6.0,6.0,68,0.00,,,0.00,Wunderground v.1.15,2013-02-12 17:00:00,
2013-02-12 12:05:00,34.4,24.9,29.98,West,278,4.0,8.0,68,0.00,,,0.00,Wunderground v.1.15,2013-02-12 17:05:00,
2013-02-12 12:10:00,34.4,24.6,29.99,West,267,4.0,4.0,67,0.00,,,0.00,Wunderground v.1.15,2013-02-12 17:10:00,
2013-02-12 12:15:00,34.5,25.0,29.98,West,276,3.0,8.0,68,0.00,,,0.00,Wunderground v.1.15,2013-02-12 17:15:00,
2013-02-12 12:20:00,34.4,24.9,29.99,NW,307,2.0,8.0,68,0.00,,,0.00,Wunderground v.1.15,2013-02-12 17:20:00,
2013-02-12 12:25:00,34.4,24.6,29.99,WNW,300,4.0,8.0,67,0.00,,,0.00,Wunderground v.1.15,2013-02-12 17:25:00,
2013-02-12 12:30:00,34.4,24.9,29.99,WNW,291,3.0,8.0,68,0.00,,,0.00,Wunderground v.1.15,2013-02-12 17:30:00,
2013-02-12 12:35:00,34.4,24.6,29.99,West,264,4.0,8.0,67,0.00,,,0.00,Wunderground v.1.15,2013-02-12 17:35:00,
2013-02-12 12:40:00,34.4,24.9,29.99,WNW,295,4.0,8.0,68,0.00,,,0.00,Wunderground v.1.15,2013-02-12 17:40:00,
2013-02-12 12:45:00,34.4,24.6,29.99,WSW,256,4.0,8.0,67,0.00,,,0.00,Wunderground v.1.15,2013-02-12 17:45:00,
2013-02-12 12:50:00,34.4,24.9,29.99,West,259,3.0,8.0,68,0.00,,,0.00,Wunderground v.1.15,2013-02-12 17:50:00,
2013-02-12 12:55:00,34.4,24.9,29.99,NNW,330,3.0,8.0,68,0.00,,,0.00,Wunderground v.1.15,2013-02-12 17:55:00,
2013-02-12 13:00:00,34.4,24.6,29.99,WSW,245,3.0,8.0,67,0.00,,,0.00,Wunderground v.1.15,2013-02-12 18:00:00,
2013-02-12 13:05:00,34.3,24.5,29.99,West,280,4.0,8.0,67,0.00,,,0.00,Wunderground v.1.15,2013-02-12 18:05:00,
2013-02-12 13:10:00,34.3,24.5,30.00,WNW,289,5.0,8.0,67,0.00,,,0.00,Wunderground v.1.15,2013-02-12 18:10:00,
2013-02-12 13:15:00,34.4,24.6,29.99,NW,310,4.0,8.0,67,0.00,,,0.00,Wunderground v.1.15,2013-02-12 18:15:00,
2013-02-12 13:20:00,34.7,24.5,29.99,NW,314,3.0,8.0,66,0.00,,,0.00,Wunderground v.1.15,2013-02-12 18:20:00,
2013-02-12 13:25:00,34.7,24.5,29.99,North,349,4.0,8.0,66,0.00,,,0.00,Wunderground v.1.15,2013-02-12 18:25:00,
2013-02-12 13:30:00,34.8,24.6,29.99,WNW,300,3.0,8.0,66,0.00,,,0.00,Wunderground v.1.15,2013-02-12 18:30:00,
2013-02-12 13:35:00,34.6,24.0,29.99,West,281,3.0,15.0,65,0.00,,,0.00,Wunderground v.1.15,2013-02-12 18:35:00,
2013-02-12 13:40:00,34.4,24.2,29.99,NW,307,4.0,8.0,66,0.00,,,0.00,Wunderground v.1.15,2013-02-12 18:40:00,
2013-02-12 13:45:00,34.3,23.7,29.99,NW,305,4.0,8.0,65,0.00,,,0.00,Wunderground v.1.15,2013-02-12 18:45:00,
2013-02-12 13:50:00,34.2,23.7,29.99,NNW,336,4.0,4.0,65,0.00,,,0.00,Wunderground v.1.15,2013-02-12 18:50:00,
2013-02-12 13:55:00,34.1,23.9,29.99,North,350,4.0,5.0,66,0.00,,,0.00,Wunderground v.1.15,2013-02-12 18:55:00,
2013-02-12 14:00:00,34.1,23.9,29.99,WNW,289,3.0,8.0,66,0.00,,,0.00,Wunderground v.1.15,2013-02-12 19:00:00,
2013-02-12 14:05:00,34.0,24.2,29.98,WNW,294,3.0,8.0,67,0.00,,,0.00,Wunderground v.1.15,2013-02-12 19:05:00,
2013-02-12 14:10:00,33.8,24.0,29.98,NW,311,4.0,8.0,67,0.00,,,0.00,Wunderground v.1.15,2013-02-12 19:10:00,
2013-02-12 14:15:00,33.7,24.3,29.98,WNW,296,4.0,8.0,68,0.00,,,0.00,Wunderground v.1.15,2013-02-12 19:15:00,
2013-02-12 14:20:00,33.7,24.3,29.98,North,349,3.0,8.0,68,0.00,,,0.00,Wunderground v.1.15,2013-02-12 19:20:00,
2013-02-12 14:25:00,33.6,24.5,29.97,NNW,333,3.0,8.0,69,0.00,,,0.00,Wunderground v.1.15,2013-02-12 19:25:00,
2013-02-12 14:30:00,33.6,24.5,29.97,NNW,333,3.0,3.0,69,0.00,,,0.00,Wunderground v.1.15,2013-02-12 19:30:00,
2013-02-12 14:35:00,33.6,24.5,29.97,West,271,2.0,8.0,69,0.00,,,0.00,Wunderground v.1.15,2013-02-12 19:35:00,
2013-02-12 14:40:00,33.7,24.6,29.97,NNW,328,1.0,8.0,69,0.00,,,0.00,Wunderground v.1.15,2013-02-12 19:40:00,
2013-02-12 14:45:00,33.6,24.2,29.97,WNW,298,2.0,8.0,68,0.00,,,0.00,Wunderground v.1.15,2013-02-12 19:45:00,
2013-02-12 14:50:00,33.6,24.2,29.97,NNW,340,3.0,8.0,68,0.00,,,0.00,Wunderground v.1.15,2013-02-12 19:50:00,
2013-02-12 14:55:00,33.5,23.7,29.98,NW,319,4.0,8.0,67,0.00,,,0.00,Wunderground v.1.15,2013-02-12 19:55:00,
2013-02-12 15:00:00,33.5,23.7,29.98,NNW,338,3.0,8.0,67,0.00,,,0.00,Wunderground v.1.15,2013-02-12 20:00:00,
2013-02-12 15:05:00,33.4,24.0,29.97,NNW,345,4.0,8.0,68,0.00,,,0.00,Wunderground v.1.15,2013-02-12 20:05:00,
2013-02-12 15:10:00,33.3,23.9,29.97,West,276,3.0,3.0,68,0.00,,,0.00,Wunderground v.1.15,2013-02-12 20:10:00,
2013-02-12 15:15:00,33.4,24.3,29.97,NNW,341,1.0,8.0,69,0.00,,,0.00,Wunderground v.1.15,2013-02-12 20:15:00,
2013-02-12 15:20:00,33.4,24.0,29.97,North,350,1.0,8.0,68,0.00,,,0.00,Wunderground v.1.15,2013-02-12 20:20:00,
2013-02-12 15:25:00,33.4,24.3,29.97,West,269,1.0,8.0,69,0.00,,,0.00,Wunderground v.1.15,2013-02-12 20:25:00,
2013-02-12 15:30:00,33.3,24.6,29.97,WNW,294,1.0,1.0,70,0.00,,,0.00,Wunderground v.1.15,2013-02-12 20:30:00,
2013-02-12 15:35:00,33.3,24.6,29.96,NW,326,1.0,3.0,70,0.00,,,0.00,Wunderground v.1.15,2013-02-12 20:35:00,
2013-02-12 15:40:00,33.3,24.2,29.96,NW,319,2.0,8.0,69,0.00,,,0.00,Wunderground v.1.15,2013-02-12 20:40:00,
2013-02-12 15:45:00,33.2,24.1,29.95,West,276,2.0,8.0,69,0.00,,,0.00,Wunderground v.1.15,2013-02-12 20:45:00,
2013-02-12 15:50:00,33.2,24.1,29.95,West,279,2.0,8.0,69,0.00,,,0.00,Wunderground v.1.15,2013-02-12 20:50:00,
2013-02-12 15:55:00,33.2,24.1,29.95,NW,311,2.0,8.0,69,0.00,,,0.00,Wunderground v.1.15,2013-02-12 20:55:00,
2013-02-12 16:00:00,33.2,24.1,29.95,WNW,293,1.0,14.0,69,0.00,,,0.00,Wunderground v.1.15,2013-02-12 21:00:00,
2013-02-12 16:05:00,33.1,24.0,29.95,NNW,340,3.0,14.0,69,0.00,,,0.00,Wunderground v.1.15,2013-02-12 21:05:00,
2013-02-12 16:10:00,33.0,23.9,29.95,WSW,257,4.0,4.0,69,0.00,,,0.00,Wunderground v.1.15,2013-02-12 21:10:00,
2013-02-12 16:15:00,33.0,23.9,29.94,NNW,341,3.0,8.0,69,0.00,,,0.00,Wunderground v.1.15,2013-02-12 21:15:00,
2013-02-12 16:20:00,32.9,23.8,29.94,NNE,27,3.0,8.0,69,0.00,,,0.00,Wunderground v.1.15,2013-02-12 21:20:00,
2013-02-12 16:25:00,32.8,23.7,29.95,NNW,343,3.0,8.0,69,0.00,,,0.00,Wunderground v.1.15,2013-02-12 21:25:00,
2013-02-12 16:30:00,32.8,23.7,29.95,West,274,2.0,8.0,69,0.00,,,0.00,Wunderground v.1.15,2013-02-12 21:30:00,
2013-02-12 16:35:00,32.7,23.6,29.96,NW,312,2.0,8.0,69,0.00,,,0.00,Wunderground v.1.15,2013-02-12 21:35:00,
2013-02-12 16:40:00,32.7,24.0,29.97,West,274,2.0,8.0,70,0.00,,,0.00,Wunderground v.1.15,2013-02-12 21:40:00,
2013-02-12 16:45:00,32.6,23.9,29.97,WNW,297,2.0,8.0,70,0.00,,,0.00,Wunderground v.1.15,2013-02-12 21:45:00,
2013-02-12 16:50:00,32.5,23.5,29.97,NW,326,2.0,2.0,69,0.00,,,0.00,Wunderground v.1.15,2013-02-12 21:50:00,
2013-02-12 16:55:00,32.5,23.5,29.98,WNW,287,2.0,8.0,69,0.00,,,0.00,Wunderground v.1.15,2013-02-12 21:55:00,
2013-02-12 17:00:00,32.4,23.7,29.98,NNW,336,2.0,2.0,70,0.00,,,0.00,Wunderground v.1.15,2013-02-12 22:00:00,
2013-02-12 17:05:00,32.4,23.0,29.98,NW,319,2.0,3.0,68,0.00,,,0.00,Wunderground v.1.15,2013-02-12 22:05:00,
2013-02-12 17:10:00,32.4,23.4,29.97,WSW,252,3.0,8.0,69,0.00,,,0.00,Wunderground v.1.15,2013-02-12 22:10:00,
2013-02-12 17:15:00,32.4,23.0,29.98,NNW,330,3.0,8.0,68,0.00,,,0.00,Wunderground v.1.15,2013-02-12 22:15:00,
2013-02-12 17:20:00,32.3,22.9,29.98,NNE,22,3.0,8.0,68,0.00,,,0.00,Wunderground v.1.15,2013-02-12 22:20:00,
2013-02-12 17:25:00,32.3,22.6,29.98,West,272,3.0,8.0,67,0.00,,,0.00,Wunderground v.1.15,2013-02-12 22:25:00,
2013-02-12 17:30:00,32.2,22.5,29.99,North,350,3.0,3.0,67,0.00,,,0.00,Wunderground v.1.15,2013-02-12 22:30:00,
2013-02-12 17:35:00,32.2,22.5,29.99,WNW,289,1.0,8.0,67,0.00,,,0.00,Wunderground v.1.15,2013-02-12 22:35:00,
2013-02-12 17:40:00,32.2,22.8,29.99,NW,321,1.0,8.0,68,0.00,,,0.00,Wunderground v.1.15,2013-02-12 22:40:00,
2013-02-12 17:45:00,32.1,22.4,29.99,WNW,294,2.0,8.0,67,0.00,,,0.00,Wunderground v.1.15,2013-02-12 22:45:00,
2013-02-12 17:50:00,32.1,22.7,29.99,West,272,2.0,2.0,68,0.00,,,0.00,Wunderground v.1.15,2013-02-12 22:50:00,
2013-02-12 17:55:00,32.1,22.7,30.00,WNW,300,1.0,8.0,68,0.00,,,0.00,Wunderground v.1.15,2013-02-12 22:55:00,
2013-02-12 18:00:00,32.1,22.7,30.00,South,186,1.0,8.0,68,0.00,,,0.00,Wunderground v.1.15,2013-02-12 23:00:00,
2013-02-12 18:05:00,32.0,23.0,30.01,West,270,1.0,8.0,69,0.00,,,0.00,Wunderground v.1.15,2013-02-12 23:05:00,
2013-02-12 18:10:00,32.0,23.0,30.01,WNW,287,1.0,8.0,69,0.00,,,0.00,Wunderground v.1.15,2013-02-12 23:10:00,
2013-02-12 18:15:00,32.0,23.0,30.01,SSW,211,1.0,8.0,69,0.00,,,0.00,Wunderground v.1.15,2013-02-12 23:15:00,
2013-02-12 18:20:00,32.0,23.0,30.01,South,174,1.0,8.0,69,0.00,,,0.00,Wunderground v.1.15,2013-02-12 23:20:00,
2013-02-12 18:25:00,32.1,23.1,30.02,WSW,254,3.0,8.0,69,0.00,,,0.00,Wunderground v.1.15,2013-02-12 23:25:00,
2013-02-12 18:30:00,32.0,23.0,30.02,WNW,286,4.0,4.0,69,0.00,,,0.00,Wunderground v.1.15,2013-02-12 23:30:00,
2013-02-12 18:35:00,32.0,23.0,30.03,WSW,253,2.0,8.0,69,0.00,,,0.00,Wunderground v.1.15,2013-02-12 23:35:00,
2013-02-12 18:40:00,32.0,23.0,30.03,WNW,289,1.0,8.0,69,0.00,,,0.00,Wunderground v.1.15,2013-02-12 23:40:00,
2013-02-12 18:45:00,32.0,23.0,30.03,SW,233,1.0,8.0,69,0.00,,,0.00,Wunderground v.1.15,2013-02-12 23:45:00,
2013-02-12 18:50:00,31.9,22.9,30.02,SSE,153,1.0,8.0,69,0.00,,,0.00,Wunderground v.1.15,2013-02-12 23:50:00,
2013-02-12 18:55:00,31.9,22.9,30.02,SSW,201,1.0,8.0,69,0.00,,,0.00,Wunderground v.1.15,2013-02-12 23:55:00,
2013-02-12 19:00:00,31.9,22.9,30.03,West,278,1.0,1.0,69,0.00,,,0.00,Wunderground v.1.15,2013-02-13 00:00:00,
2013-02-12 19:05:00,31.9,23.2,30.03,North,8,1.0,8.0,70,0.00,,,0.00,Wunderground v.1.15,2013-02-13 00:05:00,
2013-02-12 19:10:00,31.8,23.1,30.04,SSW,206,1.0,8.0,70,0.00,,,0.00,Wunderground v.1.15,2013-02-13 00:10:00,
2013-02-12 19:15:00,31.8,22.8,30.04,WSW,243,1.0,8.0,69,0.00,,,0.00,Wunderground v.1.15,2013-02-13 00:15:00,
2013-02-12 19:20:00,31.8,22.8,30.04,SW,229,2.0,2.0,69,0.00,,,0.00,Wunderground v.1.15,2013-02-13 00:20:00,
2013-02-12 19:25:00,31.8,22.8,30.03,SW,222,2.0,3.0,69,0.00,,,0.00,Wunderground v.1.15,2013-02-13 00:25:00,
2013-02-12 19:30:00,31.8,22.8,30.04,WSW,242,2.0,2.0,69,0.00,,,0.00,Wunderground v.1.15,2013-02-13 00:30:00,
2013-02-12 19:35:00,31.8,22.8,30.04,SW,225,2.0,4.0,69,0.00,,,0.00,Wunderground v.1.15,2013-02-13 00:35:00,
2013-02-12 19:40:00,31.8,22.8,30.04,SSW,208,2.0,8.0,69,0.00,,,0.00,Wunderground v.1.15,2013-02-13 00:40:00,
2013-02-12 19:45:00,31.8,22.8,30.04,SW,231,3.0,8.0,69,0.00,,,0.00,Wunderground v.1.15,2013-02-13 00:45:00,
2013-02-12 19:50:00,31.7,22.7,30.04,West,259,4.0,4.0,69,0.00,,,0.00,Wunderground v.1.15,2013-02-13 00:50:00,
2013-02-12 19:55:00,31.7,23.0,30.04,WNW,300,4.0,8.0,70,0.00,,,0.00,Wunderground v.1.15,2013-02-13 00:55:00,
2013-02-12 20:00:00,31.7,23.4,30.04,NW,311,3.0,3.0,71,0.00,,,0.00,Wunderground v.1.15,2013-02-13 01:00:00,
2013-02-12 20:05:00,31.6,23.3,30.04,West,269,2.0,8.0,71,0.00,,,0.00,Wunderground v.1.15,2013-02-13 01:05:00,
2013-02-12 20:15:00,31.5,23.5,30.03,NW,316,1.0,8.0,72,0.00,,,0.00,Wunderground v.1.15,2013-02-13 01:15:00,
2013-02-12 20:20:00,31.4,23.7,30.04,WSW,242,1.0,8.0,73,0.00,,,0.00,Wunderground v.1.15,2013-02-13 01:20:00,
2013-02-12 20:25:00,31.4,23.7,30.03,WSW,246,1.0,8.0,73,0.00,,,0.00,Wunderground v.1.15,2013-02-13 01:25:00,
2013-02-12 20:30:00,31.3,23.6,30.03,NNW,345,2.0,8.0,73,0.00,,,0.00,Wunderground v.1.15,2013-02-13 01:30:00,
2013-02-12 20:35:00,31.3,23.6,30.04,West,266,2.0,8.0,73,0.00,,,0.00,Wunderground v.1.15,2013-02-13 01:35:00,
2013-02-12 20:40:00,31.3,24.0,30.04,SW,226,1.0,1.0,74,0.00,,,0.00,Wunderground v.1.15,2013-02-13 01:40:00,
2013-02-12 20:45:00,31.3,24.0,30.03,WSW,243,1.0,2.0,74,0.00,,,0.00,Wunderground v.1.15,2013-02-13 01:45:00,
2013-02-12 20:50:00,31.3,24.0,30.03,SSW,206,2.0,2.0,74,0.00,,,0.00,Wunderground v.1.15,2013-02-13 01:50:00,
2013-02-12 20:55:00,31.3,24.3,30.03,WSW,248,1.0,8.0,75,0.00,,,0.00,Wunderground v.1.15,2013-02-13 01:55:00,
2013-02-12 21:00:00,31.2,24.2,30.02,SW,214,0.0,8.0,75,0.00,,,0.00,Wunderground v.1.15,2013-02-13 02:00:00,
2013-02-12 21:05:00,31.2,23.9,30.02,NW,311,1.0,8.0,74,0.00,,,0.00,Wunderground v.1.15,2013-02-13 02:05:00,
2013-02-12 21:10:00,31.2,24.2,30.02,West,259,1.0,8.0,75,0.00,,,0.00,Wunderground v.1.15,2013-02-13 02:10:00,
2013-02-12 21:15:00,31.3,24.0,30.02,WSW,240,1.0,8.0,74,0.00,,,0.00,Wunderground v.1.15,2013-02-13 02:15:00,
2013-02-12 21:20:00,31.2,24.2,30.02,NNE,26,1.0,8.0,75,0.00,,,0.00,Wunderground v.1.15,2013-02-13 02:20:00,
2013-02-12 21:25:00,31.2,24.2,30.02,NNE,26,0.0,8.0,75,0.00,,,0.00,Wunderground v.1.15,2013-02-13 02:25:00,
2013-02-12 21:30:00,31.1,24.4,30.01,ENE,65,0.0,8.0,76,0.00,,,0.00,Wunderground v.1.15,2013-02-13 02:30:00,
2013-02-12 21:35:00,31.0,24.3,30.02,WNW,295,0.0,8.0,76,0.00,,,0.00,Wunderground v.1.15,2013-02-13 02:35:00,
2013-02-12 21:40:00,31.2,24.2,30.02,West,269,1.0,1.0,75,0.00,,,0.00,Wunderground v.1.15,2013-02-13 02:40:00,
2013-02-12 21:45:00,31.2,24.2,30.01,WNW,283,1.0,8.0,75,0.00,,,0.00,Wunderground v.1.15,2013-02-13 02:45:00,
2013-02-12 21:50:00,31.2,24.2,30.01,WNW,283,0.0,8.0,75,0.00,,,0.00,Wunderground v.1.15,2013-02-13 02:50:00,
2013-02-12 21:55:00,31.1,24.1,30.01,WNW,283,0.0,8.0,75,0.00,,,0.00,Wunderground v.1.15,2013-02-13 02:55:00,
2013-02-12 22:00:00,31.0,24.3,30.01,WNW,284,0.0,8.0,76,0.00,,,0.00,Wunderground v.1.15,2013-02-13 03:00:00,
2013-02-12 22:05:00,31.1,24.4,30.01,WSW,255,0.0,8.0,76,0.00,,,0.00,Wunderground v.1.15,2013-02-13 03:05:00,
2013-02-12 22:10:00,31.1,24.4,30.01,West,280,0.0,8.0,76,0.00,,,0.00,Wunderground v.1.15,2013-02-13 03:10:00,
2013-02-12 22:15:00,31.0,24.3,30.00,ENE,72,0.0,8.0,76,0.00,,,0.00,Wunderground v.1.15,2013-02-13 03:15:00,
2013-02-12 22:20:00,31.0,24.3,30.01,SW,226,0.0,8.0,76,0.00,,,0.00,Wunderground v.1.15,2013-02-13 03:20:00,
2013-02-12 22:25:00,31.0,24.3,30.00,SW,226,0.0,8.0,76,0.00,,,0.00,Wunderground v.1.15,2013-02-13 03:25:00,
2013-02-12 22:30:00,31.0,24.3,30.00,SW,226,0.0,8.0,76,0.00,,,0.00,Wunderground v.1.15,2013-02-13 03:30:00,
2013-02-12 22:35:00,30.9,24.2,30.00,SW,226,0.0,8.0,76,0.00,,,0.00,Wunderground v.1.15,2013-02-13 03:35:00,
2013-02-12 22:40:00,30.9,24.2,30.00,SW,220,0.0,8.0,76,0.00,,,0.00,Wunderground v.1.15,2013-02-13 03:40:00,
2013-02-12 22:50:00,30.9,24.2,29.99,SW,219,0.0,8.0,76,0.00,,,0.00,Wunderground v.1.15,2013-02-13 03:50:00,
2013-02-12 22:55:00,31.0,24.3,29.99,WSW,257,0.0,8.0,76,0.00,,,0.00,Wunderground v.1.15,2013-02-13 03:55:00,
2013-02-12 23:00:00,30.9,24.2,29.99,WSW,257,0.0,8.0,76,0.00,,,0.00,Wunderground v.1.15,2013-02-13 04:00:00,
2013-02-12 23:05:00,30.9,24.5,29.99,WSW,257,0.0,8.0,77,0.00,,,0.00,Wunderground v.1.15,2013-02-13 04:05:00,
2013-02-12 23:10:00,30.8,24.4,29.99,WSW,251,0.0,8.0,77,0.00,,,0.00,Wunderground v.1.15,2013-02-13 04:10:00,
2013-02-12 23:15:00,30.8,24.4,30.00,SW,229,1.0,8.0,77,0.00,,,0.00,Wunderground v.1.15,2013-02-13 04:15:00,
2013-02-12 23:20:00,30.9,24.5,30.00,WSW,243,1.0,8.0,77,0.00,,,0.00,Wunderground v.1.15,2013-02-13 04:20:00,
2013-02-12 23:25:00,30.9,24.5,29.99,WSW,239,1.0,8.0,77,0.00,,,0.00,Wunderground v.1.15,2013-02-13 04:25:00,
2013-02-12 23:30:00,30.9,24.5,29.99,WSW,239,0.0,8.0,77,0.00,,,0.00,Wunderground v.1.15,2013-02-13 04:30:00,
2013-02-12 23:35:00,30.8,24.4,29.99,WNW,297,0.0,8.0,77,0.00,,,0.00,Wunderground v.1.15,2013-02-13 04:35:00,
2013-02-12 23:40:00,30.8,24.4,29.99,WNW,298,0.0,8.0,77,0.00,,,0.00,Wunderground v.1.15,2013-02-13 04:40:00,
2013-02-12 23:45:00,30.8,24.4,29.99,WSW,249,0.0,8.0,77,0.00,,,0.00,Wunderground v.1.15,2013-02-13 04:45:00,
2013-02-12 23:50:00,30.8,24.7,29.99,SW,228,0.0,8.0,78,0.00,,,0.00,Wunderground v.1.15,2013-02-13 04:50:00,
2013-02-12 23:55:00,30.7,24.7,29.99,SW,229,0.0,8.0,78,0.00,,,0.00,Wunderground v.1.15,2013-02-13 04:55:00,